Location: Stoke Bliss
(52.2667°N, 2.5167°W)
Time: 17:16:42
(UTC+00:00)

Okean O Rocket - Pass Details

Date: 03 March 2021
Orbit: 623 x 643 km, 98.2° (Epoch: 17 April)

Event Time Altitude Azimuth Distance (km) Brightness Sun altitude
Rises 18:46:22 0° 200° (SSW) 2,896 5.3 -8.9°
Reaches altitude 10° 18:48:56 10° 215° (SW) 1,994 4.7 -9.3°
Maximum altitude 18:52:22 23° 268° (W) 1,356 4.5 -9.8°
Drops below altitude 10° 18:55:49 10° 320° (NW) 2,009 4.8 -10.3°
Sets 18:58:26 0° 335° (NNW) 2,923 5.4 -10.7°
